Weather History for KLVN - November, 2010

Change the Weather History Date:

Monday, November 29, 2010

  Actual Average (KMSP) Record (KMSP)
Temperature  
Mean Temperature 35 °F 26 °F  
Max Temperature 37 °F 33 °F 62 °F (1998)
Min Temperature 33 °F 19 °F -25 °F (1875)
Degree Days  
Heating Degree Days 30 39  
Month to date heating degree days 900  
Since 1 July heating degree days 1580  
Cooling Degree Days 0 0  
Month to date cooling degree days 0  
Year to date cooling degree days 753  
Moisture  
Dew Point 33 °F    
Average Humidity 89    
Maximum Humidity 100    
Minimum Humidity 75    
Precipitation  
Precipitation 0.38 in 0.05 in 1.38 in (1991)
Month to date precipitation 1.72  
Year to date precipitation 29.40  
Snow  
Snow 0.00 in 0.40 in 12.60 in (1991)
Month to date snowfall 8.8  
Since 1 July snowfall 9.4  
Since 1 September snowfall 9.4  
Snow Depth -    
Sea Level Pressure  
Sea Level Pressure 29.63 in    
Wind  
Wind Speed 10 mph (ESE)    
Max Wind Speed 15 mph    
Max Gust Speed 22 mph    
Visibility 6 miles    
Events Fog , Rain , Snow    
T = Trace of Precipitation, MM = Missing Value Source: NWS Daily Summary

Daily Weather History Graph

Daily Weather History Graph

Search for Another Location

Airport or City:

Trip Planner

Search our weather history database for the weather conditions in past years. The results will help you decide how hot, cold, wet, or windy it might be!

Date:

Astronomy

Nov. 29, 2010 Rise Set
Actual Time 7:27 AM CST 4:34 PM CST
Civil Twilight 6:54 AM CST 5:07 PM CST
Nautical Twilight 6:18 AM CST 5:43 PM CST
Astronomical Twilight 5:43 AM CST 6:18 PM CST
Moon 12:19 AM CST (11/29) 12:49 PM CST (11/29)
Length of Visible Light 10h 12m
Length of Day
9h 07m
Last Quarter, 40% of the Moon is Illuminated
Nov 29
Last Quarter
Dec 5
New
Dec 13
First Quarter
Dec 21
Full
Dec 27
Last Quarter

Hourly Weather History & Observations

Time (CST) Temp. Windchill Dew Point Humidity Pressure Visibility Wind Dir Wind Speed Gust Speed Precip Events Conditions
12:12 AM 37.4 °F 29.3 °F 32.0 °F 81% 29.70 in 10.0 mi SSE 12.7 mph 18.4 mph N/A   Clear
12:32 AM 37.4 °F 28.9 °F 32.0 °F 81% 29.70 in 10.0 mi SSE 13.8 mph 20.7 mph N/A   Clear
12:52 AM 37.4 °F 28.5 °F 32.0 °F 81% 29.69 in 10.0 mi SSE 15.0 mph 20.7 mph N/A   Clear
1:12 AM 37.4 °F 29.8 °F 32.0 °F 81% 29.69 in 10.0 mi SSE 11.5 mph 20.7 mph N/A   Clear
1:52 AM 37.4 °F 29.8 °F 32.0 °F 81% 29.68 in 10.0 mi SSE 11.5 mph - N/A   Scattered Clouds
2:12 AM 37.4 °F 28.9 °F 32.0 °F 81% 29.68 in 10.0 mi SSE 13.8 mph - N/A   Scattered Clouds
2:32 AM 37.4 °F 29.3 °F 32.0 °F 81% 29.68 in 10.0 mi SSE 12.7 mph 18.4 mph N/A   Scattered Clouds
2:52 AM 37.4 °F 30.3 °F 32.0 °F 81% 29.67 in 10.0 mi SSE 10.4 mph 17.3 mph N/A   Scattered Clouds
3:12 AM 37.4 °F 28.9 °F 32.0 °F 81% 29.67 in 10.0 mi SSE 13.8 mph - N/A   Mostly Cloudy
3:32 AM 37.4 °F 29.3 °F 32.0 °F 81% 29.67 in 10.0 mi SSE 12.7 mph - N/A   Overcast
3:52 AM 37.4 °F 28.9 °F 32.0 °F 81% 29.67 in 10.0 mi SSE 13.8 mph 20.7 mph N/A   Scattered Clouds
4:12 AM 37.4 °F 28.9 °F 30.2 °F 75% 29.67 in 10.0 mi SSE 13.8 mph 19.6 mph N/A   Mostly Cloudy
4:32 AM 37.4 °F 28.5 °F 30.2 °F 75% 29.66 in 10.0 mi SSE 15.0 mph 20.7 mph N/A   Mostly Cloudy
4:51 AM 37.4 °F 29.8 °F 30.2 °F 75% 29.66 in 10.0 mi SSE 11.5 mph 21.9 mph N/A   Clear
5:12 AM 35.6 °F 27.1 °F 30.2 °F 81% 29.66 in 10.0 mi SSE 12.7 mph 18.4 mph N/A   Clear
5:32 AM 35.6 °F 27.1 °F 30.2 °F 81% 29.65 in 10.0 mi SSE 12.7 mph 18.4 mph N/A   Clear
5:52 AM 35.6 °F 28.0 °F 30.2 °F 81% 29.66 in 10.0 mi SSE 10.4 mph 18.4 mph N/A   Clear
6:12 AM 35.6 °F 28.0 °F 30.2 °F 81% 29.66 in 10.0 mi SSE 10.4 mph - N/A   Clear
6:32 AM 35.6 °F 28.6 °F 30.2 °F 81% 29.66 in 10.0 mi SE 9.2 mph - N/A   Clear
6:52 AM 35.6 °F 27.1 °F 30.2 °F 81% 29.66 in 10.0 mi SE 12.7 mph 16.1 mph N/A   Mostly Cloudy
7:12 AM 35.6 °F 28.0 °F 30.2 °F 81% 29.66 in 10.0 mi SE 10.4 mph - N/A   Overcast
7:51 AM 35.6 °F 28.6 °F 32.0 °F 87% 29.67 in 10.0 mi SE 9.2 mph - N/A   Overcast
8:12 AM 35.6 °F 28.6 °F 32.0 °F 87% 29.67 in 10.0 mi SE 9.2 mph - N/A   Overcast
8:32 AM 35.6 °F 28.6 °F 32.0 °F 87% 29.67 in 10.0 mi SE 9.2 mph - N/A   Overcast
8:52 AM 35.6 °F 28.6 °F 32.0 °F 87% 29.68 in 10.0 mi SE 9.2 mph - N/A   Overcast
9:12 AM 35.6 °F 29.2 °F 32.0 °F 87% 29.68 in 10.0 mi SE 8.1 mph - N/A   Overcast
9:32 AM 37.4 °F 30.8 °F 32.0 °F 81% 29.68 in 10.0 mi SE 9.2 mph - N/A   Overcast
9:52 AM 37.4 °F 32.1 °F 32.0 °F 81% 29.67 in 10.0 mi SE 6.9 mph - N/A   Overcast
10:11 AM 37.4 °F 32.1 °F 32.0 °F 81% 29.67 in 10.0 mi SE 6.9 mph - N/A   Overcast
10:32 AM 37.4 °F 32.1 °F 32.0 °F 81% 29.67 in 10.0 mi SE 6.9 mph - N/A   Overcast
10:52 AM 37.4 °F 31.4 °F 32.0 °F 81% 29.66 in 10.0 mi SE 8.1 mph - N/A   Overcast
11:12 AM 37.4 °F 31.4 °F 33.8 °F 87% 29.65 in 10.0 mi SE 8.1 mph - N/A Rain Light Rain
11:32 AM 37.4 °F 32.8 °F 33.8 °F 87% 29.65 in 7.0 mi SE 5.8 mph - N/A Rain Rain
11:55 AM 35.6 °F 30.7 °F 33.8 °F 93% 29.64 in 4.0 mi SE 5.8 mph - 0.03 in Rain Light Rain
12:12 PM 35.6 °F 31.7 °F 33.8 °F 93% 29.63 in 3.0 mi ESE 4.6 mph - 0.02 in Rain Light Rain
12:32 PM 33.8 °F 28.6 °F 33.8 °F 100% 29.61 in 5.0 mi East 5.8 mph - 0.03 in Rain Rain
12:55 PM 35.6 °F 31.7 °F 33.8 °F 93% 29.59 in 1.8 mi East 4.6 mph - 0.05 in Rain Light Rain
1:12 PM 35.6 °F 32.8 °F 33.8 °F 93% 29.60 in 2.5 mi SE 3.5 mph - 0.01 in   Heavy Drizzle
1:55 PM 33.8 °F 28.6 °F 33.8 °F 100% 29.58 in 1.2 mi East 5.8 mph - 0.08 in Rain Rain
2:12 PM 33.8 °F 28.6 °F 33.8 °F 100% 29.59 in 1.5 mi East 5.8 mph - 0.01 in Rain Light Rain
2:31 PM 33.8 °F 29.6 °F 33.8 °F 100% 29.58 in 0.8 mi East 4.6 mph - 0.01 in   Drizzle
2:55 PM 33.8 °F 28.6 °F 33.8 °F 100% 29.57 in 0.8 mi East 5.8 mph - 0.03 in Rain Rain
3:55 PM 33.8 °F 27.7 °F 33.8 °F 100% 29.59 in 1.8 mi East 6.9 mph - 0.12 in Rain Light Rain
4:12 PM 33.8 °F 28.6 °F 33.8 °F 100% 29.59 in 1.0 mi East 5.8 mph - 0.01 in Rain Light Rain
4:32 PM 33.8 °F 27.7 °F 33.8 °F 100% 29.59 in 0.8 mi East 6.9 mph - 0.02 in Rain Light Rain
4:55 PM 33.8 °F 27.7 °F 33.8 °F 100% 29.59 in 1.0 mi East 6.9 mph - 0.05 in Rain Heavy Rain
5:11 PM 33.8 °F 28.6 °F 33.8 °F 100% 29.58 in 1.2 mi East 5.8 mph - N/A Rain Rain
5:32 PM 33.8 °F 29.6 °F 33.8 °F 100% 29.58 in 1.5 mi ENE 4.6 mph - 0.01 in   Drizzle
5:55 PM 33.8 °F 30.8 °F 33.8 °F 100% 29.57 in 1.2 mi ENE 3.5 mph - 0.01 in   Light Drizzle
6:11 PM 33.8 °F 28.6 °F 33.8 °F 100% 29.57 in 1.5 mi ENE 5.8 mph - N/A   Light Drizzle
6:32 PM 33.8 °F 29.6 °F 33.8 °F 100% 29.56 in 0.8 mi ENE 4.6 mph - N/A   Drizzle
6:52 PM 33.8 °F 30.8 °F 33.8 °F 100% 29.56 in 0.8 mi East 3.5 mph - N/A   Light Drizzle
7:11 PM 33.8 °F - 33.8 °F 100% 29.55 in 0.5 mi Calm Calm - N/A Fog Fog
7:31 PM 33.8 °F 30.8 °F 33.8 °F 100% 29.55 in 0.2 mi ENE 3.5 mph - N/A Snow Light Snow
7:52 PM 33.8 °F 30.8 °F 33.8 °F 100% 29.55 in 0.2 mi ENE 3.5 mph - N/A   Heavy Drizzle
8:11 PM 33.8 °F 29.6 °F 33.8 °F 100% 29.54 in 0.2 mi ENE 4.6 mph - 0.01 in Rain Heavy Rain
8:32 PM 33.8 °F - 33.8 °F 100% 29.54 in 0.2 mi Calm Calm - 0.01 in   Drizzle
8:55 PM 33.8 °F 30.8 °F 33.8 °F 100% 29.53 in 0.2 mi ENE 3.5 mph - 0.02 in Rain Light Rain
9:11 PM 33.8 °F 29.6 °F 33.8 °F 100% 29.52 in 0.5 mi ENE 4.6 mph - N/A Rain Light Rain
9:32 PM 33.8 °F - 33.8 °F 100% 29.52 in 0.5 mi Calm Calm - 0.02 in Rain Rain
9:55 PM 33.8 °F - 33.8 °F 100% 29.52 in 0.5 mi Calm Calm - 0.04 in Rain Light Rain
10:12 PM 33.8 °F - 33.8 °F 100% 29.51 in 0.2 mi Calm Calm - 0.01 in Rain Light Rain
10:32 PM 33.8 °F 29.6 °F 33.8 °F 100% 29.51 in 4.0 mi West 4.6 mph - 0.01 in   Overcast
10:55 PM 33.8 °F 24.8 °F 33.8 °F 100% 29.52 in 4.0 mi WSW 12.7 mph 18.4 mph 0.01 in   Light Drizzle
11:12 PM 30.2 °F 21.3 °F 30.2 °F 100% 29.53 in 4.0 mi West 10.4 mph - N/A   Overcast
11:32 PM 30.2 °F 20.2 °F 30.2 °F 100% 29.53 in 4.0 mi West 12.7 mph 17.3 mph N/A   Overcast
11:51 PM 28.4 °F 17.0 °F 28.4 °F 100% 29.53 in 4.0 mi West 15.0 mph - N/A   Overcast